Regional Weather Roundup
Issued by NWS Charleston, SC

Current Version | Previous Version | Graphics & Text | Print | Product List | Glossary On
Versions: 1 2 3 4 5 6 7 8 9 10 11 12 13 14 15 16 17 18 19 20 21 22 23 24 25 26 27 28 29 30 31 32 33 34 35 36 37 38 39 40 41 42 43 44 45 46 47 48 49 50
000 ASUS42 KCHS 020512 RWRCHS REGIONAL WEATHER ROUNDUP NATIONAL WEATHER SERVICE CHARLESTON SC 100 AM EDT TUE JUN 02 2015 NOTE: "FAIR" INDICATES FEW OR NO CLOUDS BELOW 12,000 FEET WITH NO SIGNIFICANT WEATHER AND/OR OBSTRUCTIONS TO VISIBILITY. NOT ALL STATIONS ARE QUALITY CONTROLLED BY THE NATIONAL WEATHER SERVICE. USE DATA WITH CAUTION...ESPECIALLY DEWPOINT OBSERVATIONS. SCZ027-030-031-034>040-042>050-020600- ...SOUTHEAST SOUTH CAROLINA... CITY SKY/WX TMP DP RH WIND PRES REMARKS N CHARLESTON PTCLDY 72 68 87 CALM 30.05F WATERFRONT PAR N/A 76 71 84 CALM 30.02F MOUNT PLEASANT FAIR 72 70 94 CALM 30.05S JOHNS ISLAND PTCLDY 73 70 88 CALM 30.05F PINOPOLIS N/A 77 70 78 VRB2 29.96F MONCKS CORNER FAIR 72 68 88 CALM 30.04F SUMMERVILLE FAIR 70 70 100 CALM 30.05F BEAUFORT MCAS MOCLDY 73 69 87 CALM 30.04F BEAUFORT ARPT FAIR 73 72 94 CALM 30.04S HILTON HEAD IS MOCLDY 75 72 88 CALM 30.05F WALTERBORO PTCLDY 70 66 88 E3 30.05F ALLENDALE FAIR 70 68 94 CALM 30.03F ...SOUTHERN MIDLANDS AND PEE DEE... CITY SKY/WX TMP DP RH WIND PRES REMARKS GEORGETOWN NOT AVBL KINGSTREE NOT AVBL ORANGEBURG CLOUDY 70 66 87 S7 30.05F BARNWELL FAIR 70 70 100 CALM 30.04F AIKEN LGT RAIN 68 64 88 CALM 30.09S MANNING FAIR 72 66 83 CALM 30.04F COLUMBIA LGT RAIN 71 67 87 CALM 30.03F SUMTER MOCLDY 71 65 84 CALM 30.02F FLORENCE PTCLDY 69 68 96 CALM 30.03F MYRTLE BEACH MOCLDY 75 70 83 SW5 30.07F N MYRTLE BEACH MOCLDY 78 70 76 SW10 30.05S $$ GAZ063-065-086>088-099>101-113>116-118-119-134>141-150-020600- ...SOUTHEAST GEORGIA... CITY SKY/WX TMP DP RH WIND PRES REMARKS SAVANNAH ARPT MOCLDY 72 67 84 N3 30.05S HUNTER AAF MOCLDY 72 69 93 CALM 30.02S FORT STEWART PTCLDY 69 67 94 CALM 30.02F STATESBORO MOCLDY 69 32 25 N3 30.05F SYLVANIA CLOUDY 70 70 100 CALM 30.06F CLAXTON FAIR 68 68 100 CALM 30.04F FOG ...CSRA...CENTRAL AND FAR SOUTHEAST GEORGIA... CITY SKY/WX TMP DP RH WIND PRES REMARKS THOMSON CLOUDY 70 69 98 CALM 30.09F AUGUSTA-BUSH LGT RAIN 69 68 96 CALM 30.03F AUGUSTA-DANIEL LGT RAIN 70 66 87 CALM 30.05F SWAINSBORO MOCLDY N/A N/A N/A CALM 30.07F VIDALIA LGT RAIN 70 68 94 CALM 30.06F EASTMAN FAIR 68 68 100 CALM 30.08S HAZLEHURST FOG 69 69 100 N5 30.05S VSB 1 ALMA PTCLDY 67 66 97 CALM 30.04S WAYCROSS PTCLDY 68 68 100 CALM 30.04R JESUP FAIR 68 68 100 CALM 30.05F BAXLEY FAIR 70 68 94 CALM 30.04S BRUNSWICK CLOUDY 70 66 88 W5 30.06S SAINT SIMONS NOT AVBL $$ SCZ027-028-034-036>038-045-046-048>050-GAZ119-141-020600- ...LAKE AND SUPPLEMENTAL COASTAL OBSERVATIONS... STATION/POSITION TIME TEMP WIND PRES WAVE SWELL AIR SEA DIR/SP/G HT/PER HT/PER/DIR (UTC) (F) (DEG/KT/KT) (MB) (FT/S) (FT/S/D) UPR LAKE MARION NOT AVBL WINYAH BAY NOT AVBL LAKE MURRAY 0400 74 220/ 3/ 6 1016.9R ACE BASIN NERRS NOT AVBL FORT PULASKI 0400 77 81 180/ 1/ 2 1017.8F SAPELO ISLAND 0400 75 310/ 3 1017.0S $$ ANZ835-935-AMZ111-154-330-350-352-354-370-450-454-472-020600- ...C-MAN AND BUOY OBSERVATIONS... STATION/POSITION TIME TEMP WIND PRES WAVE SWELL AIR SEA DIR/SP/G HT/PER HT/PER/DIR (UTC) (F) (DEG/KT/KT) (MB) (FT/S) (FT/S/D) BUOY 41004 0450 79 80 210/ 8/ 10 1017.3F 3/ 9 3/ 9 BUOY 41008 0450 78 79 170/ 12/ 14 1017.6R 2/ 9 2/ 90/ 9 FOLLY BEACH CMAN 0500 77 230/ 6/ 7 1017.5F CAPERS NEARSHORE 0408 78 230/ 10/ 12 1017.9F FRIPP NEARSHORE 0400 79 220/ 10/ 12 1017.4F STATION/POSITION TIME TEMP WIND PRES WAVE SWELL AIR SEA DIR/SP/G HT/PER HT/PER/DIR (UTC) (F) (DEG/KT/KT) (MB) (FT/S) (FT/S/D) 5E ST. MARYS GA 0421 80 N/A 2/10 FRYING PAN BUOY 0450 79 77 210/ 8/ 10 1018.4F 3/ 8 3/100/ 8 BUOY 41025 0450 77 78 190/ 12/ 16 1017.8F 4/ 8 3/ 90/ 8 CAPE LOOKOUT NC 0500 76 200/ 8/ 9 1017.5F BUOY 41002 0450 76 77 CALM / 2 1018.7F 4/ 8 3/110/ 8 BUOY 41010 0420 79 80 170/ 8/ 10 1018.7F ST AUGUSTINE FL 0500 76 78 200/ 3/ 3 1017.8F $$

USA.gov is the U.S. government's official web portal to all federal, state and local government web resources and services.